Regional Weather Roundup
Issued by NWS Charleston, SC

Home | Current Version | Previous Version | Text Only | Print | Product List | Glossary On
Versions: 1 2 3 4 5 6 7 8 9 10 11 12 13 14 15 16 17 18 19 20 21 22 23 24 25 26 27 28 29 30 31 32 33 34 35 36 37 38 39 40 41 42 43 44 45 46 47 48 49 50
000
ASUS42 KCHS 231527
RWRCHS

REGIONAL WEATHER ROUNDUP
NATIONAL WEATHER SERVICE CHARLESTON SC
1000 AM EST THU NOV 23 2017

NOTE: "FAIR" INDICATES FEW OR NO CLOUDS BELOW 12,000 FEET WITH NO
SIGNIFICANT WEATHER AND/OR OBSTRUCTIONS TO VISIBILITY.

NOT ALL STATIONS ARE QUALITY CONTROLLED. USE DATA WITH CAUTION...
ESPECIALLY DEWPOINT OBSERVATIONS.

SCZ027-030-031-034>040-042>050-231600-
...SOUTHEAST SOUTH CAROLINA...

CITY           SKY/WX    TMP DP  RH WIND       PRES   REMARKS
N CHARLESTON   LGT RAIN  47  44  90 NE8       30.09R
WATERFRONT PRK NOT AVBL
JOHNS ISLAND   LGT RAIN  50  48  93 N7        30.08S
PINOPOLIS        N/A     46  41  81 NE10      30.03R
MONCKS CORNER  LGT RAIN  46  39  76 NE5       30.11R
SUMMERVILLE    LGT RAIN  46  43  87 NE3       30.11R
BEAUFORT MCAS  LGT RAIN  49  47  93 NE8       30.09R
BEAUFORT ARPT  LGT RAIN  48  46  93 NE12      30.07F
HILTON HEAD IS LGT RAIN  50  46  87 N12       30.07S
WALTERBORO     RAIN      45  43  93 CALM      30.11S
ALLENDALE      CLOUDY    48  39  71 CALM      30.08F

...SOUTHERN MIDLANDS AND PEE DEE...

CITY           SKY/WX    TMP DP  RH WIND       PRES   REMARKS
GEORGETOWN     DRIZZLE   46  43  87 NE9       30.11S
KINGSTREE      PTSUNNY   45  34  65 N5        30.12S
ORANGEBURG     CLOUDY    46  34  62 NE7       30.11R
BARNWELL         N/A     50  37  62 NE8       30.11R
AIKEN          FAIR      48  32  53 NE9       30.13S
MANNING        FAIR      45  34  65 MISG      30.11S
COLUMBIA       CLOUDY    49  32  52 E10       30.12S
SUMTER         CLOUDY    45  31  58 NE13      30.10S
FLORENCE       PTSUNNY   45  34  65 NE8       30.14S
MYRTLE BEACH   CLOUDY    46  37  71 N9        30.13S
N MYRTLE BEACH CLOUDY    46  37  71 NE9       30.11S

$$

GAZ063-065-086>088-099>101-113>116-118-119-134>141-150-231600-
...SOUTHEAST GEORGIA...

CITY           SKY/WX    TMP DP  RH WIND       PRES   REMARKS
SAVANNAH ARPT  LGT RAIN  49  46  90 NE7       30.07S
HUNTER AAF     CLOUDY    50  46  87 NE6       30.03F
FORT STEWART   LGT RAIN  49  46  89 NE7       30.03S
STATESBORO     RAIN      48  42  80 E5        30.08S
SYLVANIA       CLOUDY    49  44  83 E6        30.09S
CLAXTON        LGT RAIN  50  47  88 NE7       30.08S

...CSRA...CENTRAL AND FAR SOUTHEAST GEORGIA...

CITY           SKY/WX    TMP DP  RH WIND       PRES   REMARKS
THOMSON        MOSUNNY   51  35  53 SE9       30.15S
AUGUSTA-BUSH   CLOUDY    51  34  52 E8        30.09S
AUGUSTA-DANIEL CLOUDY    51  33  50 E8        30.10S
SWAINSBORO     FAIR      54  41  62 E6        30.08S
VIDALIA        DRIZZLE   50  46  87 E8        30.06F
EASTMAN        FAIR      58  33  38 E9        30.08R
HAZLEHURST     DRIZZLE   51  47  87 NE8       30.03F
ALMA           PTSUNNY   53  50  89 VRB6      30.04R
WAYCROSS       LGT RAIN  54  51  90 NE8       30.03R
JESUP          LGT RAIN  54  48  82 CALM      30.05S
BAXLEY         DRIZZLE   50  50 100 NE8       30.04S
BRUNSWICK      LGT RAIN  55  54  94 NE12      30.03F
SAINT SIMONS   LGT RAIN  59  58  96 NE13      30.02S FOG

$$

SCZ027-028-034-036>038-045-046-048>050-GAZ119-141-231600-
...LAKE AND SUPPLEMENTAL COASTAL OBSERVATIONS...

STATION/POSITION TIME  TEMP    WIND        PRES    WAVE   SWELL
                       AIR SEA DIR/SP/G            HT/PER HT/PER/DIR
                 (UTC) (F)     (DEG/KT/KT) (MB)    (FT/S) (FT/S/D)
WINYAH BAY       1445   49      30/  6     1019.0S
LAKE MURRAY      1450   45      40/  2/  6 1019.3F
ACE BASIN NERRS  1445   47     360/  1     1019.0R
FORT PULASKI     1500   52 62   40/ 11/ 12 1018.0
SAPELO ISLAND    1500   56      40/  9     1017.0

$$

ANZ835-935-AMZ111-154-330-350-352-354-370-450-454-472-231600-
...C-MAN AND BUOY OBSERVATIONS...

STATION/POSITION TIME  TEMP    WIND        PRES    WAVE   SWELL
                       AIR SEA DIR/SP/G            HT/PER HT/PER/DIR
                 (UTC) (F)     (DEG/KT/KT) (MB)    (FT/S) (FT/S/D)
BUOY 41004       1510   66 75   40/ 19/ 23 1016.5
BUOY 41008       1450   62 67   40/ 19/ 25 1015.8R   6/ 6   2/160/11
FOLLY BEACH CMAN 1500   53      30/ 12/ 15 1018.9R
CAPERS NEARSHORE 1508   53 62   40/ 17/ 23 1017.7S
FRIPP NEARSHORE  1508   52 62   20/ 10/ 19 1017.4F


STATION/POSITION TIME  TEMP    WIND        PRES    WAVE   SWELL
                       AIR SEA DIR/SP/G            HT/PER HT/PER/DIR
                 (UTC) (F)     (DEG/KT/KT) (MB)    (FT/S) (FT/S/D)
5E ST. MARYS GA  1500      67                N/A     5/ 5
FRYING PAN BUOY  1510   61 72   30/ 17/ 23 1018.2
BUOY 41025       1510   57 71   10/ 14/ 17 1019.4
CAPE LOOKOUT NC  1500           10/ 11/ 13 1020.5R
BUOY 41002       1450   72 76   40/ 16/ 19 1015.5F   7/ 9   5/100/ 9
BUOY 41010       NOT AVBL
ST AUGUSTINE FL  1500   67 69   20/ 17/ 18 1014.1F


$$



USA.gov is the U.S. government's official web portal to all federal, state and local government web resources and services.